Home   Weather   Löhne   Past weeks

Flag for Germany Past Weather in Löhne, North Rhine-Westphalia, Germany — Yesterday and Last 2 Weeks

Now
72 °F

Passing clouds.


Feels Like: 77 °F
Forecast: 54 / 69 °F
Wind: 6 mph from West

Location: Bueckeburg

Current Time: Sep 27, 2016 at 5:33:28 PM

Latest Report: Sep 27, 2016 at 4:20 PM


Visibility: N/A

Pressure: 30.27 "Hg

Humidity: 44%

Dew Point: 48 °F

Location of LöhneLocation

Past Weather in Löhne — Graph

°F

Löhne Temperature Yesterday

Maximum temperature yesterday: 66 °F (at 2:20 PM)
Minimum temperature yesterday: 55 °F (at 11:20 PM)
Average temperature yesterday: 62 °F

High & Low Weather Summary for the Past Weeks

 TemperatureHumidityPressure
High91 °F (Sep 13, 3:20 PM)100% (Sep 17, 12:20 PM)30.30 "Hg (Sep 17, 12:20 PM)
Low46 °F (Sep 19, 5:20 AM)26% (Sep 13, 4:20 PM)29.86 "Hg (Sep 15, 4:20 PM)
Average64 °F68%30.07 "Hg
* Reported Sep 12 4:20 PM — Sep 27 4:20 PM, Löhne, Weather by CustomWeather, © 2016

Note: Actual official high and low records may vary slightly from our data, if they occured in-between our weather recording intervals... More about our weather records

Advertising

Löhne Weather History for the Previous 24 Hours

Scroll right to see more
 ConditionsComfort  
Time TempWeatherWind HumidityBarometerVisibility
4:20 PM
Tue, Sep 27
72 °FPassing clouds.6 mph44%30.27 "HgN/A
3:20 PM72 °FPassing clouds.6 mph44%30.27 "HgN/A
2:20 PM70 °FPassing clouds.5 mph46%30.30 "HgN/A
1:20 PM68 °FScattered clouds.6 mph53%30.30 "HgN/A
12:20 PM68 °FPassing clouds.3 mph60%30.30 "HgN/A
11:20 AM64 °FPassing clouds.3 mph68%30.30 "HgN/A
10:20 AM63 °FPassing clouds.1 mph77%30.30 "HgN/A
9:20 AM57 °FPassing clouds.1 mph88%30.30 "HgN/A
8:51 AM54 °FFog.No wind100%30.27 "Hg3 mi
8:20 AM52 °FLight fog.1 mph94%30.27 "Hg2 mi
7:47 AM50 °FFog.2 mph94%30.27 "Hg0 mi
7:20 AM48 °FFog.2 mph100%30.27 "Hg0 mi
6:20 AM50 °FLight fog.2 mph100%30.27 "Hg5 mi
5:20 AM52 °FFog.1 mph94%30.24 "HgN/A
4:20 AM52 °FPassing clouds.2 mph100%30.24 "HgN/A
3:20 AM54 °FPassing clouds.2 mph94%30.24 "HgN/A
2:20 AM54 °FPassing clouds.1 mph94%30.24 "HgN/A
1:20 AM54 °FPassing clouds.2 mph94%30.24 "HgN/A
12:20 AM54 °FPassing clouds.3 mph100%30.24 "HgN/A
11:20 PM
Mon, Sep 26
55 °FPassing clouds.2 mph88%30.24 "HgN/A
10:20 PM59 °FPassing clouds.1 mph82%30.24 "HgN/A
9:20 PM61 °FPassing clouds.1 mph77%30.21 "HgN/A
8:20 PM63 °FPassing clouds.1 mph73%30.21 "HgN/A
7:20 PM63 °FPassing clouds.2 mph73%30.21 "HgN/A
6:20 PM66 °FPartly sunny.3 mph60%30.21 "HgN/A
5:20 PM66 °FPartly sunny.2 mph60%30.21 "HgN/A
Weather by CustomWeather, © 2016

See weather overviewHow to use our weather pages